Temp
17 17 18 18 18 18 18 18 19 19 19 18 18 18 19 18 18 18 18 18 18 19 18 18 19 19 19 19 19 18 18 17 18 19 18 18 17 17 18 18 18 18 18
18 17 18 18 18 18 18 18 18 18 18 19 19 19 18 18 18 18 18 18 19 19 19 19 19 19 19 19 19 19 19 18 19 18 18 18 18 17 16 17 18 18 18
18 17 18 18 18 18 18 18 19 19 19 19 19 19 19 18 18 18 18 18 19 19 19 19 19 18 19 19 19 19 18 17 17 18 18 18 18 18 18 18 18 18 18
19 18 18 18 19 18 18 18 18 18 19 19 19 19 19 19 19 19 19 19 19 19 19 19 19 18 18 18 19 18 17 18 18 18 17 17 18 17 17 18 18 18 18
19 18 18 18 19 18 18 18 19 19 19 19 19 19 19 19 19 19 19 19 19 19 19 18 18 18 18 18 19 19 19 19 18 18 18 18 18 18 18 18 18 18 18
20 19 18 19 19 18 18 19 19 19 19 19 19 19 19 19 19 19 19 19 19 19 19 19 19 19 18 18 19 19 18 18 18 18 18 18 18 18 18 18 18 19 18
20 19 19 19 19 19 19 19 19 19 19 20 19 19 19 19 19 19 19 19 18 18 19 18 18 19 19 18 18 18 18 18 18 18 19 19 19 18 18 19 19 19 18
20 19 19 19 19 19 19 19 19 19 19 19 19 19 19 19 19 19 19 19 18 18 18 18 18 18 19 18 18 18 17 17 18 18 18 18 18 18 18 18 18 19 19
20 20 19 19 19 19 19 19 19 19 19 19 19 19 19 18 19 19 18 18 18 18 18 18 18 18 18 18 18 17 17 17 18 18 18 18 18 18 18 17 18 18 18
20 20 20 20 19 19 19 19 19 19 19 19 19 18 18 18 18 19 18 18 18 18 18 18 18 18 18 18 18 18 18 17 18 18 18 18 18 18 18 18 18 18 18
20 20 20 20 20 19 19 18 19 19 18 18 18 18 18 18 18 18 18 17 17 18 18 18 18 18 18 17 18 18 17 18 18 18 18 18 18 18 18 18 18 18 18
20 20 20 20 20 19 18 17 17 18 18 17 17 17 18 18 18 18 18 18 18 17 17 18 17 18 18 18 17 18 17 18 18 18 18 18 18 18 18 17 18 18 19
20 20 20 20 19 19 19 18 19 18 18 17 17 17 18 18 18 18 18 18 18 18 17 17 18 18 18 18 18 17 17 17 17 18 18 17 17 18 18 18 17 18 18
20 20 20 19 19 19 19 19 19 18 17 17 17 17 17 17 17 18 18 17 18 17 17 17 17 18 18 18 18 18 18 18 17 17 17 17 17 17 18 18 17 18 18
20 20 19 19 19 19 19 19 18 18 18 17 17 17 17 17 17 17 18 17 17 18 17 17 17 17 18 18 18 18 18 17 17 17 17 17 17 17 17 17 18 18 18
21 20 20 19 19 19 19 19 18 18 18 17 17 16 16 16 16 17 18 17 18 17 17 17 17 17 17 18 17 17 18 18 18 18 18 18 17 17 17 18 17 18 18
21 21 20 20 19 19 19 18 18 18 17 17 17 16 16 16 17 17 18 17 17 17 17 17 18 18 18 18 17 17 18 18 18 18 18 18 18 18 18 18 18 18 18
21 21 20 20 19 19 19 18 18 17 17 17 17 16 17 17 17 18 17 17 17 17 17 17 17 18 18 18 18 18 18 18 18 18 18 18 18 18 18 18 18 18 18
21 21 20 20 20 19 19 18 18 18 17 17 17 17 17 17 17 17 17 17 17 17 17 18 17 18 17 18 18 18 18 18 18 18 19 19 19 19 19 18 18 18 18
21 22 21 20 20 19 19 18 18 18 18 18 18 17 17 17 17 17 17 17 17 17 17 18 18 18 18 18 18 18 18 18 19 18 19 19 19 19 19 19 19 19 19
22 21 21 21 20 19 19 18 18 19 19 18 18 17 17 17 17 17 17 17 17 17 17 17 17 17 18 17 18 18 18 18 19 19 19 19 19 19 19 19 19 19 19
23 22 21 21 20 20 19 19 19 19 19 19 18 18 18 18 17 17 18 18 18 17 17 17 17 17 18 18 18 18 18 19 19 19 20 20 19 19 20 20 20 20 20
23 23 22 21 21 20 20 19 19 18 18 19 19 19 19 18 18 18 18 18 18 18 17 17 17 18 18 18 18 18 18 18 19 19 19 20 19 19 19 20 20 20 20
24 23 22 22 21 21 20 19 19 19 19 19 19 19 19 19 18 19 18 17 18 17 17 17 17 17 18 17 18 18 18 18 18 18 19 19 19 19 19 19 20 20 20
24 24 23 22 21 21 21 20 19 19 19 20 19 19 19 19 19 19 18 18 18 18 18 18 17 17 17 18 18 18 18 18 17 17 17 18 19 19 19 19 19 20 20
23 23 23 22 22 21 21 20 20 20 20 20 20 20 19 19 19 20 19 18 18 18 18 17 17 17 17 17 18 18 18 18 18 17 17 18 18 19 19 19 19 19 20
Height
1538 1541 1543 1546 1549 1551 1553 1555 1557 1559 1560 1561 1563 1565 1566 1568 1569 1570 1570 1570 1570 1570 1570 1570 1571 1571 1572 1573 1575 1575 1576 1577 1578 1579 1581 1582 1583 1584 1585 1586 1587 1588 1589
1536 1541 1545 1548 1551 1554 1556 1558 1559 1561 1563 1564 1565 1567 1568 1569 1570 1572 1572 1571 1571 1573 1573 1573 1572 1573 1574 1575 1577 1577 1578 1580 1581 1582 1583 1584 1586 1587 1588 1588 1589 1589 1590
1537 1542 1546 1550 1553 1555 1558 1560 1562 1564 1566 1567 1568 1569 1571 1571 1572 1573 1573 1574 1574 1574 1575 1575 1575 1575 1576 1578 1579 1580 1581 1582 1584 1585 1586 1587 1588 1589 1590 1590 1591 1591 1592
1538 1543 1547 1551 1555 1558 1560 1562 1565 1567 1568 1569 1570 1571 1573 1574 1574 1575 1576 1576 1576 1576 1577 1577 1577 1577 1578 1580 1581 1582 1583 1584 1585 1587 1588 1589 1590 1592 1592 1592 1593 1594 1595
1540 1545 1549 1553 1557 1560 1562 1564 1566 1568 1570 1571 1572 1573 1574 1575 1576 1576 1577 1578 1578 1579 1579 1579 1579 1580 1580 1581 1582 1584 1584 1586 1586 1588 1589 1590 1592 1593 1593 1594 1594 1595 1596
1541 1546 1550 1554 1558 1561 1564 1565 1567 1569 1571 1573 1574 1575 1576 1577 1577 1577 1578 1578 1579 1579 1580 1580 1581 1581 1582 1583 1583 1584 1586 1587 1587 1589 1590 1591 1592 1594 1595 1595 1596 1596 1597
1542 1547 1551 1555 1559 1562 1565 1567 1568 1570 1571 1573 1575 1576 1576 1577 1578 1578 1578 1578 1579 1579 1580 1581 1581 1582 1583 1584 1585 1586 1587 1588 1589 1589 1591 1592 1593 1595 1596 1596 1597 1597 1598
1544 1549 1552 1556 1559 1562 1565 1567 1569 1570 1571 1573 1574 1575 1576 1577 1578 1578 1579 1579 1579 1580 1580 1581 1582 1583 1583 1584 1585 1586 1588 1588 1590 1591 1592 1592 1594 1595 1596 1597 1598 1598 1598
1547 1550 1553 1556 1559 1562 1564 1566 1568 1570 1571 1573 1574 1575 1576 1576 1577 1578 1579 1579 1579 1579 1580 1580 1581 1582 1583 1584 1586 1586 1587 1588 1590 1591 1592 1593 1593 1595 1596 1597 1598 1599 1599
1547 1550 1553 1556 1559 1561 1564 1566 1568 1570 1571 1573 1574 1575 1575 1576 1577 1578 1578 1579 1579 1579 1579 1580 1580 1581 1582 1584 1585 1586 1586 1587 1589 1591 1592 1593 1593 1594 1595 1597 1598 1598 1599
1547 1550 1552 1556 1558 1561 1563 1565 1567 1569 1570 1571 1574 1574 1576 1576 1577 1577 1578 1578 1579 1579 1579 1579 1579 1580 1581 1582 1584 1585 1586 1586 1587 1589 1591 1593 1593 1594 1595 1595 1597 1598 1598
1545 1548 1551 1554 1557 1559 1562 1564 1566 1567 1570 1570 1572 1574 1575 1575 1575 1576 1576 1577 1577 1578 1578 1577 1577 1578 1579 1581 1583 1585 1585 1586 1586 1588 1590 1591 1592 1593 1594 1594 1596 1597 1597
1544 1547 1549 1553 1556 1558 1561 1564 1564 1566 1568 1569 1569 1572 1573 1573 1573 1574 1575 1576 1575 1575 1576 1576 1577 1577 1578 1579 1580 1582 1583 1584 1585 1586 1587 1589 1591 1592 1593 1594 1595 1595 1596
1543 1546 1549 1552 1555 1558 1560 1561 1563 1565 1567 1569 1569 1570 1571 1570 1571 1572 1573 1572 1572 1573 1574 1575 1576 1576 1577 1577 1578 1579 1580 1582 1583 1584 1585 1586 1588 1590 1591 1592 1593 1593 1594
1542 1544 1548 1551 1554 1556 1558 1560 1561 1564 1564 1566 1567 1568 1568 1568 1568 1569 1571 1571 1570 1571 1572 1572 1574 1575 1575 1575 1576 1577 1579 1580 1581 1582 1583 1584 1585 1587 1589 1590 1590 1591 1591
1542 1544 1548 1550 1553 1555 1557 1558 1561 1561 1564 1565 1566 1566 1565 1565 1564 1565 1567 1569 1569 1570 1569 1569 1571 1573 1574 1575 1575 1576 1577 1578 1579 1580 1581 1582 1583 1584 1585 1586 1588 1589 1589
1541 1544 1546 1549 1552 1553 1555 1557 1560 1562 1563 1564 1564 1563 1562 1562 1563 1563 1565 1567 1568 1568 1568 1567 1569 1571 1573 1573 1574 1574 1575 1576 1577 1578 1579 1580 1580 1581 1582 1583 1584 1585 1587
1542 1545 1548 1550 1552 1554 1556 1558 1559 1561 1562 1563 1563 1561 1560 1560 1561 1562 1565 1565 1566 1566 1566 1566 1566 1568 1570 1570 1572 1572 1572 1573 1575 1576 1576 1577 1578 1578 1580 1581 1581 1582 1584
1542 1545 1547 1549 1551 1553 1554 1556 1556 1557 1558 1561 1561 1561 1561 1560 1561 1562 1564 1565 1565 1564 1564 1564 1564 1565 1567 1568 1569 1569 1570 1571 1572 1573 1574 1575 1576 1576 1577 1579 1580 1580 1580
1541 1543 1546 1548 1550 1551 1554 1555 1555 1554 1553 1554 1557 1560 1561 1561 1561 1561 1563 1563 1563 1562 1562 1562 1563 1563 1563 1566 1566 1566 1567 1567 1568 1570 1571 1572 1573 1574 1575 1576 1577 1577 1578
1538 1542 1543 1546 1549 1551 1552 1554 1553 1552 1553 1553 1553 1555 1558 1559 1560 1560 1561 1562 1561 1560 1560 1560 1560 1560 1560 1562 1563 1564 1564 1564 1565 1566 1568 1569 1569 1570 1571 1572 1573 1574 1574
1536 1539 1542 1545 1547 1549 1552 1551 1550 1552 1552 1552 1553 1553 1554 1556 1557 1557 1557 1558 1559 1559 1558 1557 1558 1558 1559 1560 1560 1561 1560 1561 1561 1562 1563 1564 1565 1566 1566 1567 1568 1569 1571
1533 1535 1538 1542 1544 1548 1547 1550 1550 1550 1550 1551 1552 1553 1553 1554 1555 1554 1555 1554 1555 1555 1556 1555 1555 1556 1557 1558 1558 1558 1557 1556 1557 1559 1560 1561 1561 1561 1562 1563 1563 1564 1565
1527 1531 1535 1538 1542 1543 1545 1547 1548 1549 1551 1553 1552 1552 1552 1552 1553 1551 1552 1552 1552 1551 1553 1554 1553 1553 1554 1555 1555 1555 1555 1556 1556 1556 1557 1558 1557 1558 1559 1558 1558 1558 1560
1525 1526 1530 1535 1539 1540 1542 1545 1548 1548 1550 1552 1552 1551 1551 1550 1550 1551 1551 1550 1550 1550 1551 1551 1551 1552 1552 1552 1552 1553 1553 1554 1554 1555 1553 1555 1555 1555 1555 1555 1554 1554 1554
1522 1526 1527 1533 1533 1534 1538 1541 1543 1544 1547 1549 1551 1550 1550 1549 1549 1549 1548 1549 1549 1548 1549 1550 1551 1551 1551 1551 1550 1551 1552 1552 1551 1552 1552 1551 1551 1551 1551 1551 1550 1548 1548
Wind_Speed
23 25 25 25 23 23 23 23 23 23 22 21 19 16 16 16 15 14 13 12 10 13 13 12 11 10 11 12 12 13 14 14 13 13 14 14 14 13 12 13 13 13 13
29 28 27 25 22 21 22 21 21 21 20 20 19 18 17 15 12 11 12 11 11 13 13 12 12 12 12 12 12 14 15 14 15 15 13 12 12 12 12 11 11 11 11
30 29 28 25 22 22 23 23 23 24 23 21 19 18 16 16 16 16 14 11 12 14 13 13 13 15 13 12 12 14 14 13 13 12 11 13 12 11 11 10 10 9 9
31 31 29 25 23 23 24 24 24 23 21 20 18 17 16 16 15 14 14 13 12 11 12 12 12 13 12 11 12 13 12 12 11 10 10 11 10 9 9 9 9 9 9
31 31 28 25 24 24 24 24 22 20 19 17 16 15 15 14 14 12 11 12 11 11 9 11 9 12 12 9 12 12 12 12 12 10 8 7 6 7 7 6 7 7 7
31 30 29 27 25 24 23 22 20 19 17 15 14 13 13 12 11 10 9 9 9 9 9 8 9 11 11 10 12 13 12 13 11 9 7 6 5 4 5 4 4 5 4
32 31 30 28 26 25 23 20 18 15 14 13 12 12 11 9 8 7 7 7 7 8 9 8 8 9 11 12 13 12 10 8 8 6 5 6 5 4 3 3 2 2 2
32 31 30 28 26 24 20 17 14 14 13 13 12 11 9 8 7 6 5 4 5 7 8 10 10 10 11 12 13 12 10 8 7 6 5 5 4 4 2 2 1 1 1
28 29 29 28 26 23 19 15 13 14 13 13 12 10 9 8 7 6 5 4 4 6 7 9 10 11 12 13 15 13 11 9 7 5 7 7 6 5 3 4 2 2 2
25 27 27 27 25 22 18 15 14 14 13 11 10 9 8 7 6 5 4 4 4 6 7 8 10 11 13 13 15 16 15 12 10 6 7 10 9 7 6 5 4 4 4
25 24 26 26 24 22 19 17 16 15 13 11 10 9 7 6 6 5 4 4 5 7 8 8 10 11 13 15 15 16 16 15 13 11 9 11 11 10 8 8 7 6 5
27 26 24 24 24 23 20 19 17 15 12 10 8 9 8 7 7 6 5 5 7 9 9 9 10 11 13 14 16 17 17 16 15 14 14 12 14 14 13 12 9 8 7
24 25 25 24 23 22 21 20 18 14 11 14 18 17 11 10 10 9 9 11 9 10 9 10 11 11 12 12 14 15 16 17 18 16 15 14 13 14 14 14 12 9 9
23 24 24 24 24 21 21 21 18 14 12 13 13 15 13 12 12 12 9 12 14 11 10 11 11 11 11 11 11 12 12 13 13 15 14 16 15 13 13 14 14 12 11
22 23 23 23 23 21 21 21 19 17 15 11 8 16 17 17 17 17 11 5 7 7 8 11 11 12 12 12 11 11 11 10 9 10 12 14 15 16 15 19 17 17 15
20 20 20 23 21 19 19 19 17 18 17 14 11 13 17 18 14 16 15 9 8 7 9 9 9 11 11 12 11 10 9 9 10 9 9 13 16 19 19 18 19 18 16
20 19 19 20 19 19 16 15 15 15 15 15 14 14 14 14 11 15 16 12 16 9 8 7 10 11 12 13 11 9 10 9 10 10 10 9 11 12 13 13 14 15 15
20 21 19 20 20 18 15 12 9 12 14 14 13 12 8 11 12 14 13 10 11 11 10 11 10 10 10 13 12 11 11 11 10 11 12 12 12 12 11 11 13 14 15
21 19 20 20 19 17 14 12 12 11 14 13 12 10 9 8 11 12 11 11 12 11 10 13 13 11 11 12 12 13 12 10 11 10 10 11 15 15 15 15 14 14 14
24 14 16 19 17 18 16 14 14 15 15 15 14 14 12 12 14 14 12 11 13 13 9 11 13 13 12 11 12 12 13 12 13 13 14 13 14 16 17 19 19 20 18
25 20 22 19 16 18 19 19 17 16 14 15 15 12 16 16 16 15 14 14 14 11 9 10 12 15 13 13 12 11 11 13 15 15 14 16 19 18 18 18 18 16 18
26 23 25 21 18 19 19 18 16 12 14 13 14 13 14 15 16 17 15 14 14 13 12 11 10 12 14 12 14 10 7 11 12 13 14 14 15 20 21 20 19 19 17
27 25 24 24 18 17 20 19 16 16 16 16 15 14 14 15 16 17 18 16 18 17 15 12 10 10 13 13 12 8 4 2 6 5 9 12 16 14 17 20 23 21 20
26 24 24 23 21 19 19 21 18 16 14 12 11 10 10 15 16 14 15 16 17 17 16 15 13 14 14 14 14 13 13 14 10 10 9 12 7 13 12 12 15 18 21
28 25 25 22 20 21 20 19 19 16 14 11 12 12 13 10 9 8 9 9 15 15 14 13 17 16 16 15 17 14 14 13 14 18 20 13 12 15 15 15 13 17 21
30 28 24 23 22 21 22 20 20 18 13 15 16 13 10 10 10 11 10 4 9 10 13 15 16 18 18 17 16 16 15 14 15 14 15 18 20 17 13 13 17 18 21
Wind_Direction
153 149 149 144 140 136 137 137 137 133 132 135 136 138 136 135 132 132 128 113 112 126 134 132 125 120 111 103 110 119 122 115 116 119 121 124 126 122 116 114 111 108 110
151 152 152 149 145 142 141 141 139 139 138 135 134 135 135 132 133 138 128 116 112 120 127 128 125 124 123 117 115 116 114 114 116 113 112 113 115 110 108 109 106 106 108
152 154 153 153 148 144 142 140 137 135 133 132 134 135 132 129 123 123 122 118 115 113 120 125 128 128 127 127 122 118 116 112 113 123 121 116 115 115 112 111 110 110 110
154 155 155 155 150 147 144 141 141 140 138 137 137 136 135 129 126 126 123 118 115 114 121 122 131 134 134 140 137 133 130 124 124 124 126 120 119 120 118 118 124 123 123
159 158 158 157 154 149 149 149 147 144 143 141 140 141 138 134 133 131 130 128 127 123 130 129 141 143 137 148 148 145 142 138 134 129 125 119 112 123 122 119 116 115 115
159 161 160 161 157 155 155 154 152 151 151 150 150 149 144 143 142 142 140 143 145 144 142 150 154 157 162 161 157 155 146 143 132 123 120 119 112 116 119 116 108 110 115
159 161 163 164 163 161 159 157 159 164 168 164 159 153 149 149 152 151 154 155 166 173 174 173 169 172 177 175 165 168 166 166 159 136 123 135 132 133 128 101 66 76 113
163 165 166 168 169 167 166 166 171 176 179 172 166 165 161 160 157 159 171 184 186 197 195 195 190 189 192 189 188 190 197 196 188 181 165 156 158 164 149 172 8 352 335
171 172 173 175 179 178 182 186 184 185 188 177 177 178 174 172 176 174 177 192 218 216 209 206 204 202 203 198 196 195 199 206 201 216 229 210 203 213 208 225 245 262 293
176 182 185 186 190 195 199 201 195 187 190 190 191 197 194 198 196 193 198 204 229 227 214 214 217 210 208 207 204 205 207 224 222 233 235 225 225 225 227 240 257 265 265
182 185 192 197 201 203 205 202 196 191 202 209 210 210 211 212 221 216 220 235 237 236 238 230 224 219 212 212 211 212 221 231 240 244 240 235 238 241 245 255 264 265 269
189 191 195 199 203 203 201 205 198 205 213 216 224 246 227 226 231 236 231 253 253 233 233 233 230 222 216 211 217 221 228 237 246 253 251 251 237 246 251 253 267 271 273
195 198 200 201 203 205 206 209 214 216 225 220 251 238 227 239 246 244 258 261 260 224 233 243 237 232 219 214 218 223 230 236 241 248 246 239 235 248 242 250 258 266 264
201 205 205 205 207 211 214 216 223 218 235 249 247 232 245 247 250 250 264 283 234 215 236 240 237 233 222 213 212 216 224 233 240 245 242 234 241 255 247 248 254 259 257
208 209 210 209 210 217 222 224 226 223 238 253 268 248 254 258 257 248 247 261 183 207 245 244 239 233 217 206 205 214 231 246 250 249 246 238 246 251 258 259 258 254 257
210 212 210 211 210 217 224 231 232 230 242 249 270 277 262 263 252 224 219 221 196 226 243 253 224 214 202 209 219 228 222 233 260 257 256 254 258 254 256 245 253 254 261
214 213 212 207 207 213 216 225 231 241 245 259 270 285 268 248 241 215 217 239 223 231 232 220 213 222 223 231 228 227 233 243 253 262 261 255 251 247 251 248 244 251 261
221 220 218 214 210 215 220 227 243 252 258 267 269 276 261 236 220 203 220 213 212 221 229 217 211 219 224 229 226 229 234 248 255 258 256 250 250 249 252 252 245 246 256
225 218 222 220 218 219 220 226 236 249 256 263 260 261 247 226 207 205 210 214 227 232 228 217 220 225 231 231 243 231 238 244 247 253 254 249 246 248 251 250 251 257 261
236 229 224 229 225 224 230 235 237 240 241 241 250 254 252 244 228 233 237 236 238 236 236 234 235 238 229 238 235 235 254 261 255 259 262 257 250 250 257 256 254 255 258
238 238 234 231 228 226 227 232 237 241 243 242 246 240 248 252 245 241 243 238 247 239 246 254 253 242 232 240 239 246 256 267 273 265 275 265 257 257 256 258 254 257 261
240 237 234 232 231 227 233 235 240 253 247 242 239 242 241 247 251 248 246 242 242 245 251 259 252 231 222 240 248 258 277 277 271 271 282 273 269 264 258 250 256 259 256
237 235 232 231 230 230 233 236 239 242 244 243 246 254 252 256 254 254 258 258 256 243 245 250 242 240 237 246 251 245 284 305 326 295 305 296 280 269 258 254 258 256 254
230 230 233 232 233 233 236 237 241 250 258 264 269 264 255 252 262 269 270 273 268 263 248 243 243 248 246 250 239 252 256 263 278 295 290 305 279 295 267 290 270 259 255
230 231 229 231 233 237 238 238 244 250 254 254 266 268 270 259 260 271 299 293 270 274 253 248 242 248 253 250 250 251 266 261 263 266 284 286 291 287 282 276 295 276 259
237 235 233 230 233 233 238 236 242 246 251 258 264 271 279 280 260 251 281 327 320 297 273 264 251 251 253 256 257 256 261 271 271 277 276 287 294 294 293 286 295 293 263